Location: Gleizolles
(44.4833°N, 6.7667°E)
Time: 23:53:45
(UTC+00:00)

S-56A Canister/Altair - Pass Details

Date: 25 June 2024
Orbit: 638 x 2488 km, 38.9° (Epoch: 24 July)

Event Time Altitude Azimuth Distance (km) Brightness Sun altitude
Rises 17:39:08 0° 195° (SSW) 3,530 10.9 15.6°
Reaches altitude 10° 17:42:14 10° 176° (S) 2,837 10.3 15.0°
Maximum altitude 17:46:52 19° 134° (SE) 2,619 9.8 14.3°
Drops below altitude 10° 17:52:43 10° 94° (E) 3,728 10.5 13.3°
Sets 17:57:38 0° 80° (E) 5,104 11.2 12.4°
